Location: Grambois
(43.7619°N, 5.5873°E)
Time: 08:58:44
(UTC+00:00)

BREEZE-M DEB (TANK) - Pass Details

Date: 04 October 2020
Orbit: 333 x 12040 km, 49.7° (Epoch: 22 October)

Event Time Altitude Azimuth Distance (km) Brightness Sun altitude
Rises 01:08:45 0° 162° (SSE) 13,989 9.0 -44.7°
Reaches altitude 10° 01:23:41 10° 154° (SSE) 14,490 9.1 -43.0°
Maximum altitude 02:39:11 38° 106° (ESE) 12,486 9.1 -32.3°
Drops below altitude 10° 03:21:05 10° 57° (ENE) 9,465 9.3 -25.4°
Sets 03:26:56 0° 51° (NE) 9,366 9.5 -24.4°
